Wind_Speed
122 123 123 123 123 123 123 122 122 121 121 121 121 121 121 121 121 121 121 121 121 121 121 121 121 121 122 122 122 123 123 124 124 124 124 124 124 124 123 123 122 121 120 119 118 118 117 116 115 116 117 117 116 116 116 116 117 117 117 117 116 115 114 114 113 109 106 106 108 109 111 112 112 113 114 114 114 114 115 116 115 113 111 110 110
117 118 119 119 120 120 120 120 120 120 120 121 121 121 121 121 121 122 122 122 122 122 122 122 123 123 123 123 124 124 124 125 125 125 125 125 125 125 124 124 123 122 120 119 118 118 117 116 115 116 117 118 116 116 116 116 116 116 116 116 115 114 113 113 112 110 106 104 106 108 110 111 111 113 115 116 115 115 115 116 116 115 113 111 110
115 115 116 117 117 118 119 120 120 120 121 121 121 121 121 122 122 122 123 123 123 123 124 124 124 124 125 125 125 125 126 126 126 126 126 126 126 125 125 124 123 122 121 120 119 119 118 117 116 116 117 117 116 115 116 116 116 115 114 114 114 113 112 112 112 110 107 104 104 106 109 111 112 112 115 117 117 116 115 115 117 117 115 112 111
113 114 115 115 116 117 118 119 119 120 120 121 121 121 122 122 123 123 123 124 124 125 125 125 126 126 126 126 126 127 127 127 127 127 127 126 126 125 124 124 123 122 121 120 120 120 119 118 117 116 116 116 115 115 115 115 115 115 114 113 113 112 111 111 111 109 107 105 103 104 108 111 112 112 115 118 118 117 117 116 116 117 116 114 111
113 113 114 115 115 116 117 118 119 119 120 121 121 122 122 123 123 124 124 125 125 126 126 126 127 127 127 127 127 127 127 127 127 127 126 126 125 125 124 124 123 122 121 120 120 119 118 117 116 115 115 115 115 114 114 115 115 114 113 112 112 112 110 110 110 109 107 105 102 102 105 109 112 112 113 117 119 118 117 117 116 116 116 115 113
112 113 114 114 115 116 117 117 118 119 120 121 121 122 123 123 124 124 125 125 126 126 127 127 127 128 127 127 127 127 126 126 126 126 126 125 125 125 124 123 122 121 120 119 119 118 117 116 115 115 115 115 114 114 114 113 113 113 113 112 111 111 109 108 108 108 106 104 102 101 102 106 110 112 112 114 117 117 116 117 117 116 116 115 114
113 113 114 115 116 116 117 118 119 120 121 121 122 123 123 124 125 125 126 126 126 127 127 127 127 127 126 126 126 125 125 125 125 125 125 125 125 124 123 122 121 120 119 118 118 117 117 116 115 115 114 114 114 113 112 111 111 111 110 110 109 109 108 107 107 106 105 103 101 100 100 103 107 111 111 112 114 115 115 116 116 114 114 115 114
114 115 115 116 117 118 119 119 120 121 121 122 123 123 124 125 125 126 126 126 126 126 126 125 125 125 125 125 125 124 125 125 125 125 124 124 124 123 122 121 120 120 118 117 117 117 116 116 115 114 113 113 112 111 110 109 108 108 108 108 108 107 106 106 105 105 105 103 101 100 100 101 105 108 111 112 112 112 113 114 113 111 112 113 113
115 116 117 118 119 119 120 121 121 122 123 123 123 124 124 125 125 125 125 125 125 125 124 124 124 124 124 124 124 124 124 124 124 124 124 124 124 123 123 121 120 119 118 117 116 116 115 114 113 112 111 111 110 109 109 108 107 106 106 106 106 106 105 104 104 104 103 103 101 99 99 100 102 106 109 111 112 111 110 112 111 109 109 111 112
117 118 119 119 120 121 121 122 122 122 123 123 123 123 123 123 124 124 124 124 124 124 124 123 124 124 123 124 123 123 124 124 124 124 124 124 124 123 122 121 119 117 116 115 114 114 113 112 111 111 110 110 109 108 108 107 106 105 105 104 103 103 102 101 101 100 100 100 98 97 97 98 100 103 106 108 110 110 109 109 109 108 108 110 110
117 118 118 119 120 120 120 120 121 121 121 122 122 122 122 122 123 123 123 123 123 123 123 123 123 124 124 123 123 123 123 124 124 124 123 123 123 122 120 118 116 114 113 113 112 112 111 110 110 109 109 108 108 107 106 105 104 103 102 101 100 99 99 98 97 97 97 96 95 94 94 95 96 99 102 104 106 107 106 106 107 107 107 109 109
115 116 117 117 118 118 119 119 119 120 120 121 121 121 122 122 122 122 123 123 123 123 123 123 123 123 123 123 122 122 122 122 122 121 121 121 120 119 118 116 113 112 111 112 111 110 109 108 107 107 107 106 106 105 104 103 102 101 100 99 98 96 96 95 94 94 94 93 92 91 90 91 93 96 99 100 101 102 102 103 105 105 105 106 106
114 115 116 116 117 117 118 118 119 119 120 121 121 121 121 122 122 122 122 122 122 122 122 122 122 122 121 120 120 119 119 119 119 119 119 119 119 118 117 114 111 110 110 110 109 107 106 106 105 104 104 104 104 103 103 102 101 100 98 97 96 94 93 92 92 91 91 90 89 88 87 89 90 92 95 97 97 97 98 100 102 103 102 102 102
115 115 116 117 117 117 118 118 119 119 120 120 121 121 121 121 121 121 121 121 121 121 121 120 120 120 119 119 118 117 118 118 118 118 118 118 118 117 115 112 110 108 108 107 106 105 104 104 103 102 103 103 103 102 101 100 99 98 96 94 93 92 91 90 89 89 88 87 86 85 85 87 88 89 91 93 92 93 95 97 99 99 98 98 98
115 116 117 117 118 118 118 119 119 119 119 120 120 120 120 120 120 120 120 119 119 119 119 119 118 118 118 117 117 116 117 117 117 117 117 117 116 115 114 111 109 107 106 105 104 103 103 102 101 101 101 101 101 100 99 98 97 95 93 91 90 89 88 87 87 86 86 85 84 83 83 85 86 86 87 88 89 89 91 93 94 94 94 94 96
116 117 118 118 118 118 119 118 118 119 119 119 119 119 119 119 119 118 118 118 117 117 117 117 117 117 117 117 116 115 115 116 116 115 115 115 115 114 112 110 108 106 104 103 102 102 101 99 99 99 98 98 98 97 97 96 94 92 90 88 88 86 85 84 85 85 84 84 83 82 82 83 83 83 83 84 85 85 86 87 88 89 90 90 93
116 117 117 117 117 118 117 117 117 117 117 117 117 117 117 117 116 116 116 116 116 116 116 116 116 115 115 115 114 113 113 113 113 113 112 113 113 112 110 108 106 103 101 101 100 100 99 98 97 96 96 96 95 95 95 94 91 89 87 86 85 84 83 83 84 84 84 83 82 82 81 80 80 79 79 80 81 81 81 82 84 85 84 85 89
115 115 115 115 115 115 115 115 115 114 114 115 115 115 115 115 115 114 114 114 114 114 113 113 113 113 112 112 111 111 110 110 111 110 110 111 111 109 107 105 103 101 99 98 98 98 98 97 96 95 94 94 94 94 93 91 88 85 85 84 83 83 83 83 83 83 83 82 81 80 79 77 77 76 76 77 79 78 77 77 80 81 80 81 85
113 113 113 113 113 113 113 113 113 113 113 113 113 113 113 113 113 112 112 112 111 111 111 110 110 110 110 110 109 109 109 109 109 109 108 109 109 107 105 103 101 98 97 97 97 97 96 95 94 94 93 92 92 91 90 89 85 83 81 81 82 83 83 82 81 81 82 81 80 78 77 76 75 74 74 75 76 75 73 73 76 77 77 78 81
111 111 111 111 111 111 111 111 111 111 111 111 111 111 111 110 110 110 109 109 109 108 108 108 108 108 108 108 108 108 108 107 107 107 106 107 107 106 103 101 98 96 94 95 96 96 94 93 92 92 91 90 89 88 87 86 83 80 79 79 80 80 80 80 81 81 80 78 77 76 75 74 73 71 71 73 74 73 71 70 72 75 75 75 77
109 108 108 108 108 108 108 108 108 108 108 108 108 108 108 108 107 107 107 107 107 106 106 106 106 106 106 106 106 106 106 105 104 104 104 104 105 103 101 98 95 93 93 94 94 93 92 90 90 89 89 88 87 85 84 83 80 78 78 78 77 76 77 78 80 80 78 76 75 74 72 70 69 69 69 71 72 71 69 68 70 72 72 72 73
106 105 105 105 105 105 105 105 105 105 105 105 105 105 105 105 105 105 104 104 104 104 104 103 103 103 103 103 104 104 104 102 101 100 101 101 101 100 98 95 91 90 91 92 91 91 90 89 88 87 86 85 84 83 82 80 78 77 76 76 75 74 75 77 78 78 77 75 73 71 68 66 66 66 67 69 70 69 67 66 68 69 69 69 70
102 102 102 102 102 102 102 102 102 102 102 102 102 102 102 102 102 101 101 101 100 100 101 100 100 100 100 101 101 101 100 99 98 97 97 97 97 97 96 93 89 88 89 90 89 88 87 86 85 84 83 82 82 81 79 77 76 75 75 74 73 73 74 75 76 76 76 74 71 68 66 64 64 65 65 66 67 66 65 65 66 67 67 67 68
100 99 99 99 99 99 99 99 99 99 99 98 98 99 99 98 98 98 98 97 97 97 97 97 97 96 97 97 98 98 97 95 95 94 94 94 94 93 93 91 88 87 87 87 87 86 85 84 83 81 81 81 80 78 76 74 73 73 74 73 73 72 72 73 74 74 73 71 69 66 64 63 63 64 64 64 64 64 63 64 65 65 65 65 66
98 98 97 97 97 97 97 97 96 96 96 96 95 95 95 95 95 95 95 94 93 93 94 94 94 93 94 94 95 95 94 92 91 91 90 90 90 90 89 89 87 85 84 84 84 84 83 81 80 79 78 78 77 75 73 72 71 71 72 72 72 71 70 70 71 70 70 68 66 64 62 62 62 62 62 62 62 62 62 63 63 63 63 63 64
95 95 95 94 94 94 94 94 93 93 93 92 92 92 92 92 92 92 91 91 90 90 90 90 90 90 90 91 92 92 90 89 88 88 87 87 86 86 86 86 85 83 82 81 81 80 79 78 77 76 75 74 73 72 71 69 69 69 69 70 70 69 68 67 67 67 67 65 63 62 61 60 60 61 61 60 60 60 60 61 62 62 62 62 62
92 91 91 91 90 90 90 90 90 90 90 90 89 89 89 88 89 89 88 87 87 87 87 87 87 87 88 88 89 89 87 85 85 85 84 83 82 82 82 82 81 80 79 78 78 77 76 75 75 73 72 71 70 69 68 67 66 66 67 68 68 67 66 64 64 64 63 62 61 60 59 59 59 59 59 58 58 58 59 60 61 61 61 61 61
89 89 88 88 88 87 87 87 87 87 87 87 87 86 86 85 85 86 85 84 84 84 84 84 84 84 84 86 86 85 83 81 81 81 80 79 78 78 78 79 78 77 77 75 74 73 73 72 72 71 69 68 67 66 66 65 64 64 65 65 65 65 63 62 61 61 61 60 59 58 57 57 57 57 57 56 56 57 58 59 60 60 60 60 61
86 86 86 85 85 85 85 85 84 84 84 84 84 84 83 83 83 83 82 81 81 81 81 81 81 80 81 82 83 82 79 77 76 77 76 75 75 75 75 75 75 75 74 72 71 71 70 69 69 68 67 65 64 63 63 63 62 62 62 62 62 62 61 59 58 58 58 58 57 56 55 55 55 55 55 55 54 55 57 58 59 60 60 60 60
84 84 83 83 82 82 82 82 82 82 82 82 82 82 81 80 79 80 80 78 77 77 77 77 78 78 78 79 80 79 77 74 72 72 73 72 72 73 72 72 72 72 71 69 68 68 67 67 66 66 65 63 62 61 61 61 61 60 60 59 60 59 59 57 57 56 56 56 55 54 54 53 53 53 54 53 53 54 55 57 58 59 59 60 59
82 81 81 80 80 80 80 80 80 79 79 79 79 79 79 78 76 76 76 76 75 74 74 74 75 75 75 76 77 77 75 72 69 69 70 70 70 71 70 69 70 70 68 67 66 65 64 64 64 64 63 61 60 59 59 60 59 58 57 57 57 57 56 55 55 54 54 54 53 53 52 52 52 52 52 52 51 52 54 55 57 58 59 59 59
79 79 78 78 78 78 77 77 77 77 76 76 76 76 76 76 75 73 72 72 72 72 71 72 72 73 72 73 74 74 74 71 67 66 66 67 67 68 67 67 68 67 65 64 63 62 61 61 61 61 60 59 58 57 58 58 58 57 56 55 55 54 54 53 53 53 52 52 51 51 51 51 51 51 50 50 50 51 52 54 55 56 57 57 57
76 75 75 75 75 75 74 74 73 73 73 73 73 73 73 73 73 72 70 68 67 67 68 69 70 71 70 70 70 71 71 69 66 64 63 64 64 64 64 65 65 64 62 61 59 58 58 58 58 58 57 56 56 56 56 56 56 55 54 53 52 52 51 51 51 51 51 50 50 50 51 50 49 49 48 48 49 50 51 52 53 54 55 55 55
73 73 72 72 73 72 72 71 70 70 70 70 70 70 70 69 70 70 69 67 64 63 63 64 67 69 69 67 67 67 67 66 64 61 60 60 61 61 61 62 62 61 59 58 56 55 55 55 55 54 54 53 53 54 54 55 54 53 52 51 50 49 48 48 49 49 49 49 49 49 49 49 48 47 47 47 47 48 49 51 52 53 53 53 53
70 70 70 69 70 69 69 68 67 67 67 67 67 67 66 66 66 66 66 65 63 61 59 59 62 65 67 66 64 63 63 62 60 59 57 57 57 58 58 58 58 58 56 54 53 51 51 52 52 52 51 51 51 52 53 53 52 51 50 49 48 46 46 46 47 47 47 47 47 47 47 47 46 46 45 45 45 46 48 49 50 51 52 51 51
68 68 67 67 67 66 66 65 65 64 64 64 64 64 63 62 62 62 62 62 62 60 58 56 56 59 63 64 63 60 58 57 56 56 54 53 53 55 55 55 55 54 53 51 49 48 48 48 49 49 49 49 50 50 51 50 49 48 47 47 45 44 43 44 45 45 45 45 45 45 45 45 45 44 43 43 44 45 46 47 49 50 50 50 50
66 65 65 65 64 64 63 63 62 62 62 62 61 61 60 60 59 59 59 59 59 59 57 56 54 55 58 60 60 58 54 52 52 52 52 51 50 51 52 52 52 51 49 48 46 45 45 46 46 47 47 47 48 49 49 48 46 45 45 44 43 41 41 43 43 43 43 43 43 43 43 43 43 42 42 42 42 43 45 47 48 48 49 49 48
63 63 63 63 62 62 61 60 59 59 59 59 58 58 58 57 57 56 56 57 57 56 56 55 54 53 54 55 56 55 52 49 48 48 48 48 48 48 49 49 49 48 46 44 42 42 43 44 45 45 45 45 46 46 46 45 43 42 42 41 40 40 40 41 42 42 41 41 41 41 41 41 41 41 41 41 41 43 44 45 46 47 48 48 48
61 60 60 60 60 60 59 58 57 56 56 55 55 55 55 55 54 54 54 54 54 54 54 54 53 52 52 52 52 51 49 47 46 45 45 45 45 46 46 46 46 45 42 40 39 39 41 42 43 43 43 44 44 43 42 41 39 39 39 39 39 38 39 40 40 40 39 39 39 40 40 40 40 40 39 40 40 41 43 44 45 45 46 46 47
59 58 57 57 56 56 56 55 55 54 53 52 52 52 52 51 51 51 51 52 52 52 52 51 51 50 49 49 49 48 47 46 44 43 42 42 42 43 43 43 42 41 39 38 37 38 39 41 42 42 41 41 41 39 38 37 36 36 37 38 38 37 37 38 38 38 37 37 38 38 38 38 38 38 38 38 39 40 41 42 43 43 44 45 46
57 56 55 54 54 53 53 52 52 51 50 50 49 49 49 49 49 49 49 49 49 49 49 48 48 47 46 46 46 45 44 43 42 42 41 40 40 40 41 40 38 37 37 36 36 36 38 39 39 39 38 38 37 35 34 34 34 34 35 36 36 35 35 35 36 36 36 36 36 36 36 36 36 36 36 37 37 38 39 41 42 42 43 45 45
55 54 53 52 52 51 50 49 49 48 48 48 47 46 46 46 46 46 46 46 46 45 45 45 44 44 43 43 42 42 41 41 40 39 39 38 38 38 38 37 35 34 34 34 35 35 36 36 36 35 35 35 34 33 32 32 32 33 33 34 33 33 32 33 34 34 34 34 34 34 34 34 34 35 35 35 36 37 38 39 40 41 41 42 43
52 51 51 50 49 49 48 47 46 46 45 45 44 44 43 43 43 43 43 43 42 42 42 42 41 40 40 39 39 39 38 38 37 37 37 36 36 35 34 34 33 32 32 33 33 33 33 32 32 32 32 32 31 30 29 29 30 30 31 31 31 30 31 31 32 32 32 32 32 32 32 32 33 33 34 34 34 35 36 37 38 39 39 40 42
50 49 49 48 48 47 46 46 44 43 43 42 42 41 41 41 40 40 39 39 39 38 38 38 37 37 36 36 36 36 36 35 34 34 34 34 33 32 32 31 31 30 30 30 31 30 30 29 30 30 30 29 28 27 27 27 28 29 29 29 29 29 28 29 29 30 30 30 30 31 30 31 31 32 32 33 33 33 34 35 37 38 38 40 41
48 47 46 46 45 45 44 44 42 41 40 40 39 38 38 38 38 37 36 36 35 35 35 34 34 34 33 33 33 33 32 32 32 32 31 31 30 30 30 29 29 28 28 28 28 27 27 27 27 28 27 26 25 25 25 26 26 27 27 26 26 26 26 27 28 28 29 29 29 29 29 29 29 30 31 31 31 32 33 34 35 36 37 38 39
46 45 44 44 43 43 42 41 40 39 38 38 37 36 36 35 35 34 34 33 33 33 32 32 31 31 30 30 29 29 29 29 29 29 28 28 28 28 28 27 27 26 25 25 25 25 25 25 25 24 24 23 23 23 24 24 24 25 24 24 24 24 25 26 26 27 28 28 27 27 27 27 28 29 29 30 30 31 32 33 34 35 36 36 37
44 43 42 42 41 41 40 39 39 38 36 36 35 34 34 33 33 32 31 31 31 30 30 29 29 28 27 27 27 27 27 26 26 25 25 25 25 25 25 25 24 23 23 22 22 23 23 23 22 21 21 22 22 22 22 22 22 23 23 23 23 23 24 24 25 26 26 26 26 26 26 26 27 27 28 28 28 29 30 31 32 33 34 35 36
42 41 40 39 39 38 37 36 36 35 34 33 33 32 31 31 30 30 29 29 29 28 28 27 26 25 25 24 24 24 24 23 23 23 23 23 23 22 22 22 22 21 21 20 20 20 20 20 20 19 19 20 20 20 20 20 21 22 22 22 22 22 22 23 23 24 24 24 24 24 24 25 26 26 26 26 27 27 28 29 31 32 32 33 34
39 38 37 36 35 35 34 33 33 32 32 31 30 29 29 28 28 27 27 26 26 26 25 25 24 23 23 22 22 21 21 21 20 20 21 20 20 19 19 19 19 19 19 18 18 18 18 18 18 17 17 18 18 18 19 20 21 21 21 20 20 20 20 21 22 22 22 22 22 23 23 24 24 25 25 25 25 26 27 28 29 30 31 32 32
38 36 35 34 33 32 32 31 30 30 29 29 28 27 27 26 25 25 24 23 23 23 23 22 21 21 20 20 19 19 18 18 18 18 18 17 17 17 17 17 17 17 16 15 15 16 16 16 15 15 16 16 17 17 18 19 19 19 18 18 18 18 19 19 20 20 21 21 21 21 22 22 23 23 23 24 24 25 25 26 27 28 29 30 31
37 36 35 34 33 32 31 30 29 28 27 26 26 25 24 24 23 22 22 21 21 20 20 19 19 18 18 17 17 16 16 15 15 15 15 14 14 14 14 15 14 14 13 13 13 14 13 13 13 14 14 15 16 16 17 17 17 17 16 16 16 16 17 18 18 19 19 19 19 20 20 21 21 21 21 22 22 23 24 25 26 27 27 29 29
Wind_Direction
276 277 277 277 278 278 278 279 279 279 279 280 280 280 280 280 280 281 281 281 281 281 281 282 282 282 282 282 282 282 282 282 282 282 282 282 282 282 282 281 281 281 281 280 280 280 279 279 279 279 279 278 278 278 277 277 276 275 275 274 273 273 272 271 270 269 267 267 267 267 266 266 265 265 264 263 262 261 261 260 259 257 256 255 254
275 276 276 277 277 278 278 279 279 279 279 279 280 280 280 281 281 281 281 282 282 282 282 282 282 282 282 282 282 282 282 282 282 282 282 282 282 282 282 282 282 281 281 281 281 280 280 280 280 279 279 279 278 278 277 276 275 275 274 273 273 272 271 271 270 269 267 266 266 266 266 265 264 264 263 263 261 260 260 260 259 258 256 255 253
275 275 276 276 277 277 278 278 278 279 279 279 280 280 281 281 281 282 282 282 282 282 282 282 282 282 282 282 282 282 282 282 282 282 282 282 282 282 282 282 282 282 282 282 281 281 281 281 280 280 279 279 278 278 277 276 275 274 273 273 272 272 271 270 270 269 267 266 265 265 265 264 263 262 262 262 261 260 259 259 259 258 257 255 254
276 276 276 276 277 277 277 278 278 279 279 280 280 280 281 281 281 281 282 282 282 282 282 282 282 282 282 282 282 282 282 282 282 282 282 282 282 282 282 282 282 282 282 282 282 282 281 281 280 280 279 278 278 277 277 276 275 275 274 273 273 272 271 270 270 268 267 265 264 263 263 263 262 261 261 261 260 260 259 258 258 258 257 256 254
277 277 277 277 277 278 278 278 279 279 279 280 280 280 280 280 280 280 281 281 281 281 281 281 282 282 282 282 282 282 282 282 282 282 282 282 282 282 282 282 282 282 282 282 281 281 281 281 280 280 279 278 278 277 277 277 276 276 275 274 273 273 272 271 270 269 267 265 263 262 261 261 261 259 259 259 259 259 258 258 257 257 257 257 255
278 278 278 278 278 278 278 278 278 279 279 279 279 279 279 279 280 280 280 280 280 281 281 281 281 281 281 282 282 282 282 282 282 282 282 282 282 282 282 282 282 282 282 281 281 281 281 281 280 280 279 279 278 278 277 277 276 276 275 274 273 273 272 271 270 269 267 266 264 262 260 260 260 259 258 257 258 258 257 257 257 256 256 256 256
278 278 278 278 278 278 278 278 278 278 278 278 278 279 279 279 279 280 280 280 280 281 281 281 281 281 281 282 282 282 282 282 282 282 282 282 282 282 282 282 282 282 282 282 281 281 281 281 280 280 279 279 278 277 277 276 276 275 275 274 273 273 272 271 270 269 268 266 264 262 261 260 260 260 259 258 257 257 257 256 256 256 256 256 255
278 278 278 278 278 278 278 278 278 278 279 279 279 279 280 280 280 280 281 281 281 281 281 281 281 282 282 282 282 282 283 283 283 283 283 283 283 283 282 282 282 282 282 282 282 282 281 281 280 280 279 279 278 277 277 276 275 275 274 274 273 272 272 271 270 269 268 267 265 263 262 260 260 260 260 259 258 257 257 256 256 255 255 255 255
278 278 278 279 279 279 279 279 280 280 280 280 280 281 281 281 281 281 281 281 281 282 282 282 282 282 283 283 283 283 283 283 284 283 283 283 283 283 282 282 282 282 282 282 281 281 281 281 280 280 280 279 279 278 277 277 276 275 274 273 273 272 271 271 270 269 268 267 266 264 263 261 260 260 260 259 259 258 257 257 256 255 254 254 254
279 279 280 280 280 280 280 281 281 281 281 281 281 281 281 282 282 282 282 282 282 283 283 283 283 283 283 284 284 284 284 284 284 283 283 283 282 282 282 282 282 281 282 281 281 281 281 281 281 280 280 280 279 278 278 277 276 275 274 274 273 272 272 271 270 270 269 268 266 265 263 261 260 259 259 259 259 258 257 256 256 255 254 253 253
280 280 280 281 281 281 281 281 281 281 281 282 282 282 282 282 282 282 283 283 283 283 283 283 283 283 283 283 283 283 283 283 283 283 282 282 282 281 281 281 281 282 282 282 281 282 282 281 281 281 280 280 279 279 278 278 277 276 275 275 274 273 273 272 271 270 269 268 266 264 263 261 260 259 258 258 258 257 257 256 255 254 254 253 252
281 281 281 281 281 281 281 282 282 282 282 282 282 282 282 283 283 283 283 283 283 283 283 283 283 283 283 283 283 283 282 282 282 282 282 282 282 282 282 282 282 282 282 282 282 282 282 282 281 281 281 281 280 280 279 279 278 278 277 276 275 275 274 273 272 270 269 268 266 265 263 262 260 259 258 257 256 256 256 255 255 253 252 253 252
282 282 282 282 282 282 282 282 282 282 282 283 283 283 283 283 283 283 283 283 283 283 283 283 283 283 283 283 283 283 283 283 283 283 283 283 283 283 282 282 282 282 282 282 282 282 283 282 282 282 281 281 281 280 280 279 279 278 277 277 276 276 275 274 273 271 270 269 267 266 264 262 260 258 258 257 256 255 255 254 254 253 253 252 252
283 283 283 283 283 283 283 283 283 283 283 283 283 283 283 283 283 283 283 283 283 283 283 283 283 283 283 283 283 283 284 283 283 283 283 283 283 283 283 283 283 283 283 283 283 283 283 283 282 282 281 281 281 280 280 279 278 278 277 277 277 276 275 275 274 273 271 270 268 267 265 263 260 258 257 256 255 254 253 253 253 253 252 252 251
284 284 284 284 284 284 284 284 284 284 284 284 284 284 284 284 284 284 284 284 284 284 284 284 284 284 284 284 284 284 284 284 284 284 284 284 283 283 283 283 283 283 283 284 284 284 283 282 282 281 281 280 280 280 279 279 278 278 278 277 277 276 276 275 274 273 272 270 269 267 265 263 261 259 257 256 255 254 253 252 252 252 251 250 250
285 285 285 285 285 284 284 284 284 284 284 284 284 284 284 284 284 284 284 284 284 284 284 284 284 284 284 284 284 284 284 284 284 284 284 284 283 283 283 283 284 284 284 284 284 283 282 282 281 281 280 280 280 279 279 279 278 278 278 278 277 277 276 276 275 273 272 270 269 267 265 263 262 260 259 257 256 255 253 252 252 251 249 249 249
285 285 285 285 285 284 284 284 284 284 284 284 284 284 284 284 284 284 284 284 284 284 284 284 284 284 284 284 284 284 284 284 284 283 283 283 283 283 283 283 283 283 284 284 283 283 283 282 281 280 280 280 280 279 278 278 278 278 278 278 277 277 277 275 274 272 271 269 268 266 265 263 262 261 260 259 257 255 254 253 252 250 249 248 248
285 285 285 285 285 285 285 285 284 284 284 284 284 284 284 284 284 283 283 283 283 283 283 284 284 284 284 284 284 284 284 283 283 283 283 283 283 283 283 283 283 284 284 284 283 283 282 281 281 280 280 280 279 279 278 278 278 278 278 278 278 277 275 273 272 271 270 269 267 266 265 264 263 262 261 259 258 256 255 254 253 251 249 247 246
286 286 286 286 285 285 285 285 285 284 284 284 284 284 284 284 283 283 283 283 283 284 284 284 284 284 284 284 284 284 283 283 283 283 283 283 283 283 283 283 283 284 284 284 283 282 281 281 280 280 279 279 278 278 278 278 278 278 278 277 276 275 273 272 272 270 269 268 267 266 265 264 263 262 261 260 259 257 256 254 253 252 249 247 246
286 286 286 285 285 285 285 284 284 284 284 284 284 284 283 283 283 283 283 284 284 284 284 284 284 284 284 284 283 283 283 282 282 282 282 282 282 283 283 283 283 284 284 283 282 281 280 280 280 280 279 279 279 279 278 278 278 277 276 275 274 273 273 273 272 270 269 268 267 266 265 264 263 262 261 260 259 258 256 254 253 252 250 248 246
286 286 285 285 285 285 284 284 284 284 284 284 284 284 283 283 283 283 283 283 283 283 283 283 283 283 283 282 282 282 281 281 281 282 282 282 282 282 283 283 283 284 283 281 281 281 280 280 279 279 279 279 279 278 278 277 277 276 275 273 273 273 273 272 271 270 269 267 266 266 265 264 263 262 261 259 258 257 256 254 253 252 251 249 247
286 286 285 285 285 284 284 284 284 284 284 283 283 283 283 283 283 283 283 283 283 282 282 282 282 282 281 281 281 281 281 281 281 281 281 282 282 282 283 283 283 283 282 281 280 280 280 280 279 279 279 279 278 278 278 277 277 276 275 274 273 272 271 270 269 269 268 267 266 266 265 264 263 261 260 258 257 256 255 254 252 252 251 249 247
286 286 285 285 285 285 284 284 284 284 283 283 283 283 282 282 282 282 282 282 282 282 281 281 281 281 281 281 280 280 281 281 281 281 281 282 282 282 283 283 283 282 281 280 280 280 280 279 279 279 279 279 278 277 277 277 277 276 275 273 272 270 269 269 268 268 268 267 267 266 265 264 262 260 258 257 256 255 254 253 252 251 250 249 247
287 286 286 286 285 285 285 284 284 284 283 283 283 282 282 282 282 282 282 281 281 281 281 281 281 281 281 280 280 280 281 281 281 281 281 281 281 282 282 282 282 281 280 280 280 280 279 279 279 279 278 278 277 277 277 276 276 275 273 272 271 269 268 268 268 268 268 268 267 266 265 263 261 259 258 256 255 254 252 251 250 250 249 248 246
287 287 286 286 286 285 285 285 284 284 284 283 283 283 283 283 282 282 282 282 282 281 281 281 281 281 281 280 280 280 281 281 281 281 281 281 281 281 282 281 281 280 280 279 279 279 279 278 278 278 277 277 277 277 276 275 274 273 272 271 270 269 268 267 267 268 267 267 267 266 264 262 261 259 257 256 254 253 251 250 249 249 248 247 246
287 287 286 286 286 285 285 285 285 284 284 284 283 283 283 283 283 282 282 282 282 282 281 281 281 281 281 280 280 280 281 281 281 281 280 280 280 280 280 280 280 279 279 278 278 278 278 278 277 277 276 276 276 275 275 274 273 272 271 270 269 268 267 267 267 266 266 266 265 264 262 261 259 258 257 255 253 251 250 249 248 247 247 246 245
287 287 287 286 286 286 286 285 285 285 285 284 284 283 283 283 283 283 283 282 282 282 282 281 281 281 281 280 280 280 280 280 280 280 280 280 280 280 279 279 279 279 278 278 277 277 277 277 276 276 275 275 275 274 274 273 272 271 270 269 268 268 267 266 266 266 265 265 264 262 260 259 258 257 256 254 252 250 249 247 247 246 245 244 243
289 288 288 288 288 287 287 286 286 286 285 285 285 284 284 283 283 283 283 283 283 282 282 282 281 281 281 280 280 280 280 280 280 280 280 280 279 279 279 278 278 278 278 277 277 277 277 276 276 276 275 275 274 274 273 272 271 270 269 269 268 268 267 266 266 265 264 263 262 261 259 258 257 256 255 253 251 250 248 246 245 244 243 242 241
290 290 290 289 289 288 288 287 287 287 286 286 285 285 284 284 284 283 283 283 283 282 282 282 282 281 281 280 280 280 280 280 280 280 280 280 279 279 278 278 278 278 277 277 277 277 277 277 276 276 275 275 274 273 273 272 271 270 269 268 268 267 267 266 265 264 263 262 261 260 259 257 256 254 254 252 250 248 246 245 243 242 241 240 240
291 291 291 290 290 289 288 288 288 287 287 287 286 286 285 285 285 285 285 284 283 283 283 283 282 282 281 281 281 281 281 281 280 280 280 280 279 279 278 278 278 278 278 278 278 277 277 277 277 276 275 275 274 273 272 271 270 269 268 267 267 266 265 265 264 263 262 261 260 259 257 256 254 253 252 251 249 247 246 244 243 242 240 239 239
292 292 291 291 290 289 289 289 288 288 288 287 287 287 287 286 285 285 285 285 285 284 284 283 283 282 282 282 282 282 282 281 281 280 280 280 279 279 279 278 278 278 278 278 277 277 277 277 276 275 275 274 273 272 271 270 269 268 267 266 265 265 264 264 263 262 261 260 259 258 256 255 253 252 250 249 248 246 245 244 243 242 241 239 238
293 292 292 291 291 290 290 289 289 289 288 288 288 287 287 287 286 286 285 285 285 285 285 284 283 283 282 282 282 282 282 282 281 280 280 279 279 279 278 278 277 277 278 277 277 277 276 275 275 274 274 273 272 271 270 269 268 267 266 265 264 264 263 262 262 260 259 258 258 257 255 253 252 251 250 248 247 245 244 243 242 242 241 240 238
293 293 292 292 291 291 290 290 290 290 289 289 288 288 288 288 287 287 286 285 285 284 284 284 283 282 281 281 280 281 281 281 281 280 279 279 278 278 278 277 277 277 277 276 276 276 275 274 273 273 272 272 271 270 269 268 267 266 265 264 264 263 262 262 261 260 259 257 256 255 254 253 252 250 249 248 246 245 243 243 242 241 241 240 239
294 294 293 293 292 292 291 291 290 290 289 289 289 288 288 288 287 287 286 285 284 283 283 282 282 282 281 280 280 280 280 281 281 281 280 279 278 278 277 277 277 277 276 276 275 275 274 273 273 272 271 271 270 269 268 267 266 266 265 264 263 263 262 261 260 259 258 256 255 254 253 253 251 250 248 247 245 244 243 242 242 241 240 240 239
295 294 294 293 293 292 292 291 291 290 290 289 289 288 288 288 287 287 287 286 285 284 282 281 281 281 281 281 280 280 280 281 282 281 280 279 279 278 277 277 277 276 276 276 275 274 273 273 272 271 271 270 269 268 267 266 266 265 265 264 263 263 262 261 259 258 257 256 254 254 253 252 251 249 248 246 244 243 242 242 241 241 240 239 238
296 295 295 294 294 293 293 293 292 292 291 290 290 289 289 288 288 287 287 286 286 285 283 281 280 280 281 281 281 280 281 281 282 281 281 280 279 278 277 277 276 276 276 276 275 274 273 272 271 270 270 269 268 267 266 265 265 265 264 264 263 262 261 260 259 257 256 255 254 253 252 251 250 249 247 245 243 242 241 240 240 240 239 238 237
298 297 297 296 295 295 294 294 293 293 292 292 291 290 290 289 288 288 287 286 286 285 285 283 281 280 280 281 281 282 282 282 281 281 280 279 278 277 277 277 276 276 276 276 275 274 273 271 270 269 268 267 266 266 265 265 265 265 264 264 263 261 260 258 257 256 254 254 253 252 251 250 249 247 245 243 241 240 239 238 238 238 237 237 236
299 298 298 297 296 296 295 295 294 293 293 292 292 291 291 290 289 288 288 287 286 286 285 284 283 282 281 281 282 283 284 283 282 280 280 279 278 277 277 276 276 276 276 276 275 274 272 271 269 267 267 266 265 265 265 266 266 265 264 263 261 259 257 256 255 254 253 252 251 250 249 248 247 245 243 241 239 238 237 237 236 236 236 235 234
299 299 298 298 297 297 297 296 296 295 294 293 292 292 291 290 290 289 288 287 286 286 285 285 285 284 284 284 284 285 285 284 282 280 279 278 277 277 276 276 276 276 276 275 274 272 270 269 268 267 266 265 265 265 266 266 266 265 263 261 259 257 255 254 254 253 251 250 249 248 247 246 245 244 242 240 238 237 236 236 236 235 235 235 234
300 300 299 299 298 298 297 297 296 295 295 293 292 291 291 290 289 288 287 287 286 286 285 285 285 285 285 285 284 285 284 283 282 280 279 278 277 276 275 275 275 276 275 274 272 269 268 267 267 266 266 266 266 266 266 266 264 262 260 258 256 254 253 253 253 252 250 248 247 246 245 244 243 242 241 239 237 236 235 235 234 234 234 233 233
303 302 302 301 300 300 299 298 297 297 296 295 293 293 292 291 290 289 288 287 287 287 287 287 287 286 286 285 285 284 284 282 281 280 279 277 276 275 275 275 275 274 274 272 270 268 266 266 266 267 267 267 266 266 264 263 261 259 257 256 255 254 252 252 252 251 249 248 246 245 244 243 242 241 239 237 236 234 234 233 233 232 232 232 231
304 304 304 303 302 301 301 300 299 298 297 296 295 294 293 292 291 290 289 289 288 288 288 288 288 287 287 286 286 284 283 282 281 280 279 277 276 275 275 274 274 272 271 270 268 267 266 267 267 267 267 266 265 264 262 260 259 257 256 255 254 253 251 250 250 249 248 247 245 244 242 241 240 239 238 236 235 233 233 233 232 232 232 232 231
306 306 306 305 304 303 303 302 301 300 299 298 297 296 295 293 292 291 290 290 290 289 289 289 289 288 287 287 286 284 283 282 282 280 279 278 276 275 274 273 272 270 269 267 267 267 267 267 267 266 265 264 263 262 261 260 258 256 254 253 252 250 249 248 248 248 247 245 244 242 241 239 238 238 236 235 233 232 231 231 231 231 230 230 230
309 309 308 308 307 306 305 304 303 302 301 300 299 298 296 295 294 293 292 292 291 290 290 289 288 288 287 287 286 284 284 283 282 281 279 278 277 276 274 272 270 269 268 267 267 267 266 265 264 264 264 263 263 262 260 257 255 254 252 250 249 248 247 247 246 246 245 244 243 241 239 238 237 237 236 234 233 231 230 230 230 229 229 228 228
312 311 310 310 309 308 307 306 305 305 303 302 301 300 298 297 296 295 294 294 293 291 290 289 289 288 288 287 286 285 284 284 282 281 280 279 278 276 273 271 270 269 268 267 267 266 265 263 263 263 263 263 261 259 257 254 253 252 251 250 248 247 246 245 244 244 244 243 241 240 238 237 236 235 235 234 232 230 229 229 229 229 228 228 228
314 313 313 312 311 310 309 309 308 307 306 305 304 303 301 300 298 297 296 295 294 293 292 291 290 289 289 288 287 285 284 282 281 281 281 279 277 274 273 272 271 269 268 267 265 264 263 263 262 262 262 261 259 256 254 253 252 251 250 249 247 245 244 243 242 242 242 242 240 239 238 236 235 234 234 233 231 230 228 228 228 227 228 227 226
317 316 315 315 314 313 312 312 311 310 309 308 306 305 303 302 300 299 297 296 295 294 294 293 292 291 290 288 286 284 283 282 282 282 280 278 276 274 273 272 271 269 268 265 264 262 262 263 262 261 259 257 256 254 253 252 250 249 247 245 243 242 241 241 241 241 241 241 240 239 237 235 234 234 233 232 231 229 228 227 227 227 226 226 226
319 318 317 316 315 315 314 313 312 312 311 310 309 307 306 304 303 301 299 298 297 296 295 294 293 292 290 288 286 285 284 283 282 280 278 277 276 275 274 272 270 268 266 264 263 262 261 261 260 257 256 254 253 252 250 249 247 246 244 243 241 240 240 240 240 240 240 240 239 237 236 235 234 233 232 231 230 228 227 227 226 226 226 225 225
321 320 319 319 318 317 317 316 315 315 314 313 312 310 309 307 306 305 303 302 300 298 297 296 295 293 291 290 288 287 285 283 281 279 278 277 276 274 272 270 268 267 266 264 263 261 259 258 256 255 252 251 249 248 246 245 244 244 243 242 240 239 238 238 238 238 238 237 236 235 234 234 232 232 231 229 228 227 226 225 225 225 224 224 224
324 324 324 324 323 322 322 321 320 319 318 317 316 314 313 311 310 309 307 305 303 301 300 298 296 295 293 291 289 287 284 283 282 280 280 278 276 273 270 268 267 266 266 264 261 259 258 256 254 251 249 247 245 244 243 242 243 243 243 241 239 238 237 236 236 236 236 235 234 233 232 232 231 231 230 228 226 225 224 223 223 223 223 223 223
330 330 330 329 329 328 327 326 325 324 323 321 320 318 317 315 313 311 310 308 306 304 302 300 298 296 294 292 290 288 286 285 284 282 280 278 275 271 269 267 267 266 264 262 259 258 256 253 250 247 245 243 242 241 241 241 241 241 240 238 235 235 235 234 234 235 234 233 232 231 230 230 230 229 228 226 225 224 223 222 221 221 221 221 221
Height
10189 10183 10178 10173 10168 10164 10160 10157 10153 10149 10146 10142 10139 10136 10132 10129 10126 10123 10120 10117 10114 10111 10108 10105 10101 10098 10094 10090 10086 10083 10079 10075 10071 10068 10064 10062 10059 10056 10054 10051 10049 10049 10048 10047 10046 10043 10040 10040 10040 10037 10030 10025 10027 10025 10021 10018 10014 10012 10009 10006 10005 10005 10005 10004 10004 10015 10024 10019 10014 10013 10009 10007 10009 10006 10003 10004 10007 10007 10006 10006 10008 10014 10020 10024 10029
10174 10170 10164 10158 10153 10149 10144 10140 10136 10133 10129 10125 10122 10118 10115 10112 10109 10105 10102 10099 10096 10092 10089 10086 10082 10079 10075 10072 10068 10064 10060 10056 10053 10049 10046 10043 10040 10036 10034 10032 10030 10029 10028 10027 10026 10023 10020 10020 10021 10019 10011 10005 10007 10005 10001 9997 9993 9991 9991 9986 9985 9987 9986 9984 9984 9990 10001 10005 9999 9994 9990 9987 9989 9989 9982 9981 9987 9989 9989 9989 9988 9992 10000 10004 10008
10159 10155 10150 10145 10140 10135 10130 10125 10121 10117 10113 10110 10106 10102 10099 10095 10092 10088 10084 10081 10077 10074 10070 10067 10064 10060 10057 10053 10050 10046 10042 10038 10035 10031 10028 10025 10021 10018 10015 10012 10010 10009 10008 10006 10005 10002 9999 9999 10000 9999 9993 9986 9986 9985 9980 9976 9973 9970 9971 9969 9965 9967 9968 9964 9964 9969 9977 9985 9985 9979 9971 9966 9969 9972 9964 9959 9964 9969 9970 9972 9972 9972 9978 9984 9988
10142 10138 10134 10130 10125 10120 10116 10111 10106 10102 10098 10094 10090 10087 10083 10079 10075 10071 10067 10064 10060 10056 10053 10049 10046 10042 10038 10035 10031 10028 10024 10020 10016 10013 10009 10006 10003 10000 9997 9993 9991 9990 9989 9987 9985 9983 9980 9979 9979 9978 9973 9968 9966 9965 9959 9955 9952 9948 9949 9950 9946 9946 9948 9945 9944 9948 9953 9961 9967 9963 9954 9946 9947 9952 9947 9937 9941 9948 9950 9952 9955 9955 9957 9962 9969
10124 10120 10117 10113 10109 10105 10100 10095 10091 10086 10082 10078 10074 10070 10066 10062 10058 10054 10050 10047 10043 10039 10035 10031 10028 10024 10020 10017 10013 10010 10006 10002 9998 9994 9990 9987 9984 9981 9978 9975 9973 9971 9970 9968 9966 9964 9962 9960 9959 9956 9951 9948 9945 9944 9940 9935 9932 9929 9928 9930 9927 9924 9927 9926 9924 9926 9930 9937 9944 9945 9938 9928 9923 9927 9929 9920 9918 9926 9930 9931 9935 9938 9939 9942 9948
10107 10103 10099 10095 10091 10087 10083 10079 10074 10070 10066 10062 10058 10054 10049 10045 10041 10037 10033 10030 10025 10021 10018 10014 10010 10006 10003 9999 9995 9992 9988 9984 9980 9975 9971 9967 9964 9961 9959 9956 9954 9952 9951 9949 9946 9944 9942 9940 9938 9935 9931 9928 9925 9923 9920 9917 9914 9911 9909 9908 9906 9904 9906 9906 9904 9904 9907 9913 9919 9922 9921 9913 9902 9901 9907 9904 9898 9904 9911 9911 9913 9919 9921 9923 9927
10089 10085 10081 10077 10073 10069 10065 10061 10057 10052 10049 10045 10041 10037 10032 10028 10023 10019 10015 10011 10007 10004 10000 9996 9992 9988 9985 9981 9977 9973 9970 9965 9961 9956 9951 9948 9943 9941 9938 9936 9934 9933 9931 9929 9927 9924 9921 9918 9916 9914 9911 9908 9904 9902 9900 9899 9896 9893 9890 9888 9886 9884 9885 9885 9883 9882 9884 9889 9895 9899 9900 9897 9887 9879 9882 9885 9881 9885 9891 9889 9892 9901 9904 9905 9909
10071 10068 10063 10059 10055 10051 10047 10043 10039 10034 10030 10027 10023 10018 10014 10009 10005 10001 9997 9993 9989 9985 9982 9978 9974 9970 9966 9962 9958 9954 9950 9945 9940 9935 9931 9927 9923 9919 9917 9915 9914 9912 9911 9910 9908 9904 9901 9898 9896 9894 9891 9887 9884 9882 9880 9879 9877 9874 9872 9869 9866 9865 9865 9865 9863 9863 9863 9866 9872 9877 9878 9877 9873 9864 9860 9861 9862 9868 9872 9867 9873 9886 9888 9885 9890
10054 10049 10045 10041 10036 10032 10028 10024 10020 10015 10011 10008 10004 9999 9995 9991 9986 9982 9978 9974 9970 9966 9963 9959 9954 9951 9947 9943 9939 9934 9930 9925 9920 9915 9911 9907 9902 9898 9896 9895 9893 9893 9893 9892 9888 9884 9881 9879 9876 9874 9870 9867 9864 9862 9860 9858 9856 9854 9853 9850 9847 9846 9847 9846 9845 9844 9844 9846 9851 9856 9857 9857 9856 9849 9843 9841 9841 9848 9854 9849 9854 9869 9871 9867 9871
10036 10032 10027 10023 10018 10014 10010 10006 10002 9997 9993 9989 9985 9981 9977 9972 9968 9963 9959 9955 9950 9946 9943 9939 9934 9931 9927 9923 9919 9914 9910 9906 9900 9895 9891 9886 9882 9879 9877 9876 9875 9875 9875 9872 9869 9866 9862 9859 9857 9854 9850 9847 9844 9842 9839 9837 9836 9834 9832 9831 9829 9828 9828 9827 9827 9827 9826 9826 9830 9835 9835 9836 9837 9830 9826 9825 9822 9824 9833 9834 9836 9847 9850 9848 9853
10020 10015 10010 10006 10001 9997 9993 9989 9984 9980 9975 9971 9966 9962 9958 9953 9948 9944 9939 9935 9931 9927 9923 9919 9914 9911 9907 9904 9900 9896 9892 9887 9881 9877 9872 9866 9862 9859 9858 9857 9857 9857 9856 9851 9848 9847 9844 9841 9838 9834 9830 9826 9823 9821 9819 9817 9815 9813 9811 9811 9811 9810 9809 9809 9809 9808 9807 9806 9810 9813 9815 9816 9816 9811 9807 9808 9805 9805 9812 9817 9818 9825 9829 9828 9836
10003 9998 9993 9989 9984 9979 9975 9970 9966 9961 9956 9951 9947 9942 9938 9934 9929 9925 9920 9916 9912 9908 9904 9899 9895 9891 9888 9885 9882 9878 9873 9868 9862 9857 9853 9847 9842 9838 9837 9837 9839 9839 9836 9831 9829 9828 9826 9823 9819 9815 9810 9806 9803 9801 9799 9797 9795 9793 9792 9791 9791 9792 9791 9790 9790 9788 9787 9787 9789 9794 9796 9795 9794 9791 9788 9788 9789 9790 9795 9797 9798 9804 9810 9811 9819
9983 9979 9974 9969 9965 9960 9956 9951 9947 9942 9937 9932 9927 9923 9918 9914 9910 9906 9902 9897 9893 9889 9884 9880 9876 9871 9868 9865 9862 9858 9853 9847 9842 9838 9833 9827 9822 9817 9815 9817 9820 9820 9816 9812 9811 9810 9807 9804 9800 9797 9792 9787 9784 9782 9780 9778 9776 9775 9774 9774 9773 9773 9773 9771 9770 9769 9768 9768 9771 9775 9776 9774 9772 9773 9770 9768 9773 9776 9778 9779 9780 9785 9793 9798 9804
9964 9959 9954 9949 9945 9940 9936 9932 9927 9922 9917 9912 9907 9903 9898 9895 9890 9886 9881 9877 9873 9868 9864 9859 9855 9851 9847 9844 9842 9838 9833 9827 9823 9818 9813 9808 9803 9798 9796 9798 9799 9799 9796 9794 9793 9792 9789 9785 9782 9779 9774 9769 9766 9764 9763 9761 9758 9757 9758 9758 9757 9756 9755 9754 9753 9751 9750 9751 9753 9755 9756 9753 9752 9755 9753 9751 9756 9760 9761 9762 9766 9770 9777 9783 9787
9944 9939 9934 9929 9924 9920 9916 9911 9907 9902 9897 9892 9887 9883 9878 9874 9870 9865 9861 9857 9852 9848 9844 9839 9835 9831 9827 9824 9822 9819 9814 9808 9803 9800 9794 9788 9783 9779 9778 9779 9779 9779 9778 9777 9775 9774 9771 9767 9764 9761 9757 9753 9749 9747 9745 9743 9742 9741 9742 9742 9741 9740 9739 9738 9736 9734 9733 9733 9735 9736 9737 9734 9734 9736 9737 9736 9739 9744 9745 9749 9753 9756 9762 9767 9769
9924 9919 9914 9909 9904 9900 9895 9892 9888 9883 9878 9873 9868 9863 9859 9855 9850 9846 9842 9838 9833 9829 9825 9821 9816 9812 9808 9805 9802 9800 9796 9789 9784 9781 9776 9770 9764 9761 9760 9761 9761 9762 9762 9761 9758 9755 9752 9750 9747 9743 9739 9737 9734 9731 9728 9726 9726 9727 9727 9726 9725 9724 9724 9723 9719 9717 9716 9716 9717 9718 9719 9718 9718 9720 9722 9723 9725 9728 9732 9736 9739 9741 9747 9753 9753
9906 9901 9896 9890 9886 9881 9876 9872 9868 9864 9859 9854 9849 9845 9840 9836 9832 9827 9823 9819 9815 9811 9807 9802 9798 9794 9790 9787 9783 9780 9778 9771 9765 9762 9759 9752 9745 9743 9744 9744 9744 9746 9747 9744 9740 9737 9734 9731 9728 9725 9723 9721 9718 9715 9712 9710 9712 9714 9713 9711 9710 9709 9709 9706 9702 9700 9700 9700 9700 9701 9702 9703 9705 9707 9708 9709 9709 9713 9718 9722 9722 9725 9733 9738 9737
9887 9882 9876 9871 9866 9861 9857 9852 9848 9844 9839 9835 9830 9826 9821 9817 9813 9808 9804 9801 9797 9793 9788 9784 9780 9776 9773 9769 9765 9761 9759 9755 9748 9744 9741 9735 9728 9726 9728 9728 9728 9730 9731 9728 9724 9720 9715 9712 9710 9708 9707 9705 9702 9699 9696 9695 9698 9701 9699 9697 9696 9694 9691 9688 9686 9685 9684 9683 9685 9686 9687 9690 9692 9693 9694 9694 9694 9698 9704 9708 9707 9711 9719 9722 9721
9867 9862 9857 9851 9846 9842 9837 9833 9828 9824 9820 9815 9811 9807 9802 9798 9794 9790 9786 9782 9779 9776 9771 9767 9763 9759 9755 9751 9747 9743 9740 9737 9731 9727 9724 9718 9712 9710 9712 9712 9713 9715 9716 9712 9706 9701 9698 9696 9694 9692 9690 9688 9686 9684 9682 9681 9684 9686 9686 9684 9681 9676 9673 9672 9672 9671 9669 9669 9671 9673 9674 9676 9678 9680 9681 9681 9681 9685 9691 9695 9694 9697 9703 9706 9707
9848 9843 9838 9833 9828 9823 9819 9814 9810 9805 9801 9797 9793 9788 9783 9779 9776 9772 9768 9765 9761 9758 9754 9750 9746 9742 9737 9734 9730 9725 9721 9719 9715 9711 9708 9702 9695 9693 9696 9697 9698 9701 9700 9694 9687 9683 9682 9681 9679 9675 9673 9672 9671 9670 9668 9667 9669 9672 9672 9668 9664 9662 9661 9658 9655 9654 9655 9657 9658 9659 9661 9664 9666 9669 9670 9669 9669 9672 9678 9682 9681 9682 9688 9692 9695
9829 9825 9820 9815 9810 9806 9801 9796 9792 9788 9783 9780 9775 9770 9765 9762 9758 9755 9751 9748 9744 9740 9737 9733 9730 9726 9721 9716 9712 9707 9703 9702 9700 9697 9692 9686 9680 9678 9679 9682 9685 9686 9682 9675 9669 9667 9666 9665 9663 9660 9658 9657 9656 9655 9654 9653 9655 9656 9654 9651 9650 9651 9649 9644 9639 9639 9641 9643 9643 9645 9649 9653 9654 9657 9658 9656 9657 9660 9665 9669 9669 9669 9674 9678 9682
9811 9807 9802 9797 9792 9788 9783 9779 9774 9770 9767 9762 9758 9754 9749 9745 9742 9738 9735 9731 9728 9724 9720 9717 9713 9710 9705 9700 9695 9690 9687 9686 9686 9683 9677 9671 9666 9663 9663 9666 9671 9670 9663 9657 9654 9653 9650 9649 9647 9646 9645 9643 9641 9640 9640 9640 9641 9640 9638 9637 9638 9637 9634 9629 9626 9626 9627 9628 9631 9634 9638 9641 9643 9644 9644 9644 9645 9648 9653 9656 9657 9658 9661 9665 9669
9794 9789 9785 9780 9775 9770 9766 9762 9757 9754 9750 9746 9741 9737 9732 9728 9725 9722 9718 9715 9712 9708 9703 9700 9697 9693 9689 9683 9677 9673 9671 9671 9670 9667 9663 9658 9653 9649 9647 9650 9654 9653 9647 9641 9639 9637 9635 9634 9633 9632 9631 9629 9626 9626 9626 9627 9627 9625 9623 9622 9622 9621 9619 9616 9614 9614 9614 9616 9620 9623 9626 9629 9630 9630 9631 9632 9633 9637 9641 9643 9645 9646 9649 9653 9657
9776 9771 9767 9762 9758 9753 9749 9744 9740 9737 9733 9729 9724 9720 9716 9712 9708 9705 9701 9699 9696 9692 9687 9683 9680 9677 9672 9666 9661 9656 9656 9656 9654 9652 9649 9645 9640 9636 9633 9633 9635 9636 9632 9628 9624 9622 9620 9620 9619 9619 9617 9614 9612 9612 9614 9614 9614 9611 9608 9607 9607 9607 9606 9605 9603 9603 9604 9606 9609 9612 9615 9617 9617 9618 9619 9620 9622 9626 9629 9631 9633 9635 9638 9641 9645
9758 9753 9749 9744 9740 9736 9731 9726 9723 9719 9715 9711 9707 9703 9699 9695 9691 9687 9684 9682 9680 9676 9671 9667 9663 9660 9656 9651 9645 9642 9641 9641 9640 9637 9634 9631 9627 9624 9620 9618 9618 9619 9618 9614 9610 9608 9606 9606 9606 9605 9603 9601 9600 9600 9601 9601 9600 9598 9595 9593 9593 9594 9594 9593 9593 9593 9593 9595 9598 9601 9603 9604 9605 9606 9607 9610 9612 9615 9617 9619 9621 9624 9627 9630 9634
9741 9736 9732 9728 9723 9719 9714 9710 9706 9702 9698 9694 9690 9687 9683 9679 9674 9670 9668 9666 9663 9659 9655 9651 9648 9644 9641 9636 9630 9627 9627 9627 9625 9622 9620 9617 9615 9612 9607 9604 9603 9604 9603 9600 9597 9595 9594 9593 9592 9591 9590 9590 9589 9588 9587 9588 9587 9585 9582 9580 9580 9580 9582 9582 9583 9582 9583 9585 9587 9589 9591 9593 9594 9595 9596 9599 9602 9604 9606 9608 9610 9613 9616 9619 9623
9724 9719 9715 9711 9707 9702 9698 9694 9690 9685 9681 9677 9674 9671 9667 9664 9659 9654 9652 9650 9648 9643 9639 9636 9633 9630 9626 9620 9615 9613 9614 9614 9611 9608 9606 9604 9602 9599 9595 9591 9590 9589 9588 9586 9584 9583 9582 9580 9578 9578 9578 9578 9577 9576 9575 9575 9574 9572 9570 9568 9568 9568 9570 9572 9572 9572 9573 9574 9576 9578 9580 9582 9583 9584 9586 9589 9592 9594 9596 9597 9599 9602 9605 9608 9612
9707 9703 9698 9695 9690 9686 9681 9677 9673 9669 9665 9660 9657 9654 9651 9648 9644 9640 9637 9636 9632 9628 9624 9621 9618 9616 9611 9605 9600 9599 9601 9602 9598 9594 9593 9591 9589 9585 9582 9579 9577 9575 9574 9573 9572 9571 9569 9567 9566 9566 9566 9565 9566 9565 9563 9562 9562 9560 9559 9557 9557 9557 9559 9561 9562 9562 9563 9563 9565 9567 9570 9572 9573 9574 9576 9579 9582 9584 9585 9587 9588 9591 9594 9597 9601
9691 9687 9683 9679 9674 9670 9665 9661 9657 9653 9648 9644 9640 9637 9635 9633 9628 9624 9623 9622 9618 9614 9610 9607 9604 9601 9597 9590 9586 9585 9587 9588 9586 9582 9579 9578 9575 9572 9569 9567 9565 9562 9560 9560 9560 9558 9556 9555 9554 9553 9553 9553 9554 9553 9552 9550 9550 9549 9548 9547 9547 9547 9548 9550 9551 9552 9552 9553 9555 9558 9560 9561 9563 9564 9566 9569 9572 9573 9575 9576 9578 9580 9583 9587 9591
9676 9671 9668 9664 9659 9654 9649 9645 9641 9637 9633 9629 9625 9621 9619 9618 9615 9610 9606 9605 9604 9601 9597 9593 9589 9586 9582 9576 9572 9570 9571 9573 9574 9570 9566 9564 9561 9558 9556 9555 9552 9549 9548 9549 9548 9546 9545 9544 9542 9541 9541 9542 9542 9542 9540 9539 9538 9538 9538 9538 9537 9537 9538 9540 9541 9542 9543 9544 9546 9548 9550 9551 9553 9555 9557 9559 9562 9563 9565 9567 9569 9571 9574 9578 9582
9661 9657 9653 9648 9644 9639 9635 9631 9627 9623 9619 9615 9610 9606 9603 9601 9601 9598 9593 9589 9588 9586 9583 9579 9575 9571 9568 9563 9558 9556 9556 9559 9560 9558 9554 9551 9548 9545 9544 9543 9539 9537 9537 9538 9536 9535 9534 9533 9531 9530 9530 9531 9531 9530 9529 9528 9527 9528 9528 9528 9528 9528 9529 9530 9532 9533 9533 9535 9537 9538 9540 9542 9543 9545 9547 9550 9553 9554 9556 9558 9560 9563 9566 9570 9574
9648 9643 9639 9634 9629 9625 9621 9617 9613 9609 9605 9601 9597 9593 9589 9585 9584 9584 9582 9578 9574 9572 9569 9565 9560 9557 9555 9551 9547 9543 9542 9544 9546 9546 9543 9539 9536 9533 9532 9530 9527 9526 9527 9526 9525 9525 9524 9522 9521 9519 9519 9520 9520 9519 9518 9517 9517 9518 9518 9519 9519 9519 9520 9522 9523 9524 9525 9526 9528 9529 9530 9532 9534 9536 9539 9542 9544 9546 9547 9550 9552 9554 9558 9562 9566
9636 9630 9626 9621 9616 9612 9608 9605 9601 9597 9592 9588 9584 9581 9578 9573 9569 9568 9567 9567 9565 9561 9557 9553 9547 9543 9541 9540 9536 9533 9530 9531 9533 9533 9531 9528 9525 9523 9521 9518 9516 9516 9516 9516 9516 9516 9514 9512 9510 9510 9510 9510 9509 9509 9508 9507 9507 9508 9509 9510 9511 9512 9513 9514 9515 9515 9516 9518 9519 9520 9521 9523 9526 9528 9531 9534 9536 9538 9540 9542 9544 9547 9550 9554 9559
9623 9618 9613 9608 9603 9599 9596 9592 9589 9585 9580 9576 9572 9569 9565 9562 9558 9554 9552 9552 9553 9552 9548 9542 9535 9530 9528 9527 9526 9523 9521 9520 9520 9521 9520 9517 9515 9512 9510 9507 9506 9505 9505 9506 9506 9506 9504 9502 9501 9500 9501 9500 9500 9499 9498 9497 9498 9499 9500 9501 9503 9504 9505 9506 9506 9507 9508 9510 9511 9512 9513 9516 9518 9521 9523 9526 9528 9530 9533 9535 9537 9539 9543 9547 9552
9610 9605 9601 9597 9592 9587 9583 9580 9577 9573 9569 9565 9561 9558 9554 9551 9547 9544 9540 9537 9537 9538 9538 9534 9527 9519 9515 9514 9514 9513 9512 9511 9510 9510 9509 9507 9504 9501 9499 9498 9496 9495 9495 9496 9497 9496 9495 9493 9492 9492 9492 9491 9491 9490 9489 9488 9489 9491 9492 9493 9495 9497 9498 9498 9499 9500 9501 9502 9503 9505 9506 9509 9511 9513 9516 9519 9521 9524 9526 9528 9530 9533 9536 9540 9545
9598 9593 9589 9585 9580 9576 9572 9568 9565 9561 9557 9553 9549 9546 9543 9540 9536 9533 9529 9526 9524 9523 9523 9523 9520 9512 9505 9502 9502 9503 9503 9503 9501 9499 9498 9497 9495 9492 9489 9488 9487 9486 9486 9487 9487 9487 9486 9485 9484 9483 9483 9482 9482 9480 9480 9480 9482 9483 9484 9486 9488 9490 9491 9491 9491 9492 9493 9495 9497 9498 9500 9502 9504 9507 9510 9513 9515 9517 9519 9521 9524 9526 9529 9533 9538
9586 9581 9576 9572 9568 9564 9560 9557 9554 9550 9546 9542 9538 9534 9531 9529 9526 9522 9519 9516 9513 9511 9509 9509 9508 9505 9499 9493 9491 9492 9494 9494 9493 9490 9488 9487 9485 9482 9480 9478 9478 9477 9478 9478 9479 9478 9478 9476 9475 9475 9474 9474 9473 9472 9472 9473 9475 9477 9478 9479 9481 9483 9483 9483 9483 9485 9486 9488 9490 9492 9493 9495 9497 9500 9503 9506 9508 9510 9512 9514 9517 9519 9522 9526 9531
9575 9570 9565 9561 9556 9553 9549 9546 9543 9540 9536 9531 9527 9524 9521 9518 9515 9512 9509 9505 9502 9500 9498 9496 9495 9494 9491 9486 9483 9482 9484 9484 9483 9481 9479 9478 9476 9474 9472 9470 9469 9469 9470 9471 9471 9470 9469 9467 9466 9466 9466 9466 9465 9465 9466 9467 9469 9471 9472 9473 9474 9476 9476 9476 9476 9478 9480 9482 9484 9485 9487 9489 9491 9493 9496 9499 9501 9503 9505 9507 9510 9513 9516 9519 9523
9565 9560 9556 9551 9546 9542 9539 9536 9532 9529 9526 9522 9518 9515 9511 9508 9505 9502 9499 9496 9493 9490 9488 9486 9485 9483 9482 9479 9476 9474 9474 9474 9473 9472 9471 9469 9467 9465 9464 9462 9461 9461 9463 9463 9463 9463 9461 9459 9458 9458 9458 9458 9458 9459 9461 9462 9464 9465 9466 9466 9467 9468 9469 9469 9470 9472 9474 9476 9477 9478 9480 9482 9484 9487 9490 9492 9495 9497 9499 9502 9505 9508 9511 9514 9517
9554 9550 9547 9543 9538 9534 9530 9526 9522 9519 9516 9513 9509 9506 9502 9499 9496 9493 9489 9486 9484 9482 9479 9478 9476 9475 9473 9471 9468 9466 9466 9465 9464 9463 9463 9461 9459 9457 9456 9455 9455 9455 9455 9455 9456 9455 9453 9452 9451 9451 9452 9452 9453 9454 9456 9457 9458 9459 9459 9459 9460 9461 9463 9464 9465 9466 9468 9470 9471 9472 9474 9476 9479 9481 9484 9486 9489 9492 9494 9496 9499 9502 9505 9508 9511
9544 9540 9536 9533 9529 9524 9521 9517 9513 9509 9506 9503 9500 9497 9493 9490 9487 9484 9481 9478 9476 9474 9471 9470 9468 9467 9465 9463 9461 9459 9458 9456 9456 9455 9455 9454 9452 9450 9449 9449 9449 9449 9448 9448 9448 9447 9446 9445 9445 9446 9446 9447 9447 9449 9450 9451 9452 9452 9453 9453 9454 9456 9457 9459 9459 9460 9462 9464 9465 9467 9469 9471 9473 9476 9478 9481 9484 9486 9489 9491 9494 9496 9499 9502 9505
9535 9531 9527 9523 9519 9515 9511 9508 9504 9501 9497 9494 9491 9488 9485 9482 9479 9476 9473 9470 9468 9466 9464 9462 9460 9459 9457 9455 9454 9452 9450 9449 9449 9448 9447 9447 9445 9444 9443 9443 9443 9442 9442 9441 9441 9440 9440 9440 9440 9441 9441 9441 9442 9443 9444 9445 9446 9447 9447 9448 9449 9451 9452 9453 9454 9455 9457 9459 9460 9462 9464 9466 9468 9470 9473 9476 9478 9481 9484 9486 9489 9492 9495 9498 9501
9527 9523 9518 9514 9510 9506 9502 9499 9496 9492 9489 9485 9482 9479 9476 9474 9471 9468 9465 9463 9461 9459 9457 9455 9453 9451 9450 9448 9446 9445 9443 9443 9442 9441 9440 9440 9439 9439 9438 9437 9436 9436 9436 9435 9435 9435 9435 9436 9436 9436 9435 9436 9437 9438 9439 9441 9441 9442 9443 9444 9444 9446 9447 9448 9449 9450 9452 9453 9455 9457 9459 9461 9463 9465 9468 9471 9474 9476 9479 9481 9484 9487 9490 9493 9496
9519 9515 9510 9506 9502 9498 9494 9490 9488 9485 9481 9478 9474 9471 9468 9465 9463 9461 9458 9456 9454 9452 9450 9448 9446 9445 9443 9441 9440 9438 9437 9437 9436 9435 9434 9434 9434 9433 9432 9431 9431 9431 9431 9430 9430 9430 9431 9431 9431 9430 9431 9432 9433 9434 9435 9436 9436 9437 9438 9439 9440 9441 9443 9444 9445 9446 9447 9449 9450 9452 9454 9457 9459 9461 9464 9466 9469 9472 9474 9477 9479 9482 9484 9487 9490
9512 9507 9503 9499 9495 9490 9486 9483 9480 9477 9474 9470 9467 9464 9461 9458 9456 9453 9451 9449 9447 9445 9443 9441 9440 9438 9437 9436 9434 9433 9432 9431 9430 9430 9429 9429 9428 9427 9426 9426 9426 9426 9426 9426 9426 9426 9426 9426 9426 9426 9427 9428 9429 9430 9430 9431 9431 9432 9433 9435 9436 9437 9438 9439 9440 9441 9442 9444 9446 9448 9450 9453 9455 9457 9459 9462 9465 9467 9470 9472 9475 9477 9480 9483 9486
9504 9500 9496 9492 9488 9484 9480 9476 9473 9470 9467 9464 9461 9458 9455 9452 9449 9447 9445 9443 9441 9439 9437 9436 9434 9433 9431 9430 9429 9428 9427 9426 9425 9425 9424 9424 9423 9422 9421 9421 9421 9421 9421 9422 9422 9421 9421 9422 9422 9423 9424 9424 9425 9426 9426 9427 9428 9429 9430 9431 9432 9433 9434 9435 9436 9437 9438 9440 9442 9444 9447 9449 9451 9453 9456 9458 9461 9463 9466 9468 9470 9473 9476 9479 9482
9498 9493 9489 9485 9481 9477 9474 9470 9467 9464 9461 9458 9455 9452 9449 9446 9444 9442 9439 9437 9435 9433 9432 9430 9429 9428 9426 9425 9424 9423 9422 9421 9421 9420 9420 9419 9418 9418 9418 9418 9417 9417 9417 9418 9418 9418 9418 9419 9419 9420 9420 9420 9421 9422 9423 9423 9424 9425 9426 9427 9428 9429 9430 9431 9433 9434 9435 9437 9439 9441 9443 9445 9448 9450 9452 9455 9457 9460 9462 9465 9467 9470 9472 9475 9478
9492 9488 9484 9480 9476 9472 9468 9465 9461 9458 9455 9452 9450 9447 9444 9441 9439 9437 9435 9432 9430 9429 9427 9425 9424 9423 9422 9421 9419 9418 9418 9417 9417 9416 9415 9415 9415 9414 9414 9414 9414 9414 9414 9414 9415 9415 9415 9416 9416 9416 9417 9417 9418 9419 9419 9420 9420 9421 9422 9423 9424 9426 9427 9429 9430 9431 9433 9434 9436 9438 9440 9442 9444 9447 9449 9451 9454 9456 9459 9461 9464 9466 9469 9472 9474
9487 9483 9479 9475 9471 9467 9464 9460 9457 9453 9450 9448 9445 9442 9440 9437 9435 9433 9431 9429 9427 9425 9423 9421 9420 9419 9418 9417 9416 9415 9414 9414 9413 9412 9412 9412 9412 9411 9411 9411 9411 9411 9411 9412 9412 9412 9412 9413 9413 9413 9414 9414 9415 9416 9416 9417 9417 9418 9419 9421 9422 9424 9425 9426 9427 9429 9430 9432 9434 9436 9438 9439 9442 9444 9446 9448 9451 9453 9456 9458 9461 9463 9466 9469 9471
9482 9478 9474 9471 9467 9463 9460 9456 9453 9449 9446 9443 9441 9438 9435 9433 9431 9429 9427 9425 9423 9421 9419 9418 9417 9415 9414 9414 9413 9412 9411 9411 9410 9410 9409 9409 9409 9409 9408 9408 9408 9408 9409 9409 9409 9409 9410 9410 9411 9411 9411 9412 9412 9413 9414 9414 9415 9416 9418 9419 9420 9422 9423 9424 9425 9427 9428 9430 9431 9433 9435 9437 9439 9441 9443 9446 9448 9450 9453 9455 9458 9460 9463 9466 9468
9478 9474 9470 9466 9463 9459 9456 9452 9449 9446 9443 9440 9437 9435 9432 9430 9427 9425 9423 9422 9420 9418 9417 9415 9414 9413 9412 9411 9410 9409 9409 9408 9408 9407 9407 9407 9406 9406 9406 9406 9406 9406 9407 9407 9407 9407 9408 9408 9409 9409 9409 9410 9411 9411 9412 9413 9414 9415 9416 9418 9419 9420 9421 9422 9424 9425 9427 9428 9430 9431 9433 9435 9437 9439 9441 9443 9446 9448 9450 9453 9455 9457 9460 9462 9465